AI5BL Weather Reports


time (UTC)temp
C
wind
direction
speed
KPH
gust
KPH
rain 1hr
cm
rain 24hr
cm
rain mn
cm
humidity
%
barometer
mb
20260510164341 25 126 0.0 0.0 0.00 0.00 0.00 76 1019.8
20260510163840 25 122 1.6 3.2 0.00 0.00 0.00 75 1019.9
20260510163338 25 75 0.0 1.6 0.00 0.00 0.00 79 1019.8
20260510162832 24 102 0.0 3.2 0.00 0.00 0.00 79 1019.7
20260510162329 23 91 0.0 4.8 0.00 0.00 0.00 80 1019.9
20260510161825 25 70 0.0 4.8 0.00 0.00 0.00 80 1019.8
20260510161320 23 95 1.6 3.2 0.00 0.00 0.00 81 1019.8
20260510160818 23 74 1.6 3.2 0.00 0.00 0.00 82 1019.7
20260510160314 23 134 0.0 1.6 0.00 0.00 0.00 80 1020.0
20260510155809 23 82 0.0 0.0 0.00 0.00 0.00 82 1019.9
20260510155306 23 109 0.0 1.6 0.00 0.00 0.00 83 1019.7
20260510154802 23 137 3.2 4.8 0.00 0.00 0.00 82 1019.8
20260510154258 23 96 0.0 0.0 0.00 0.00 0.00 87 1020.0
20260510153757 22 97 1.6 6.4 0.00 0.00 0.00 86 1020.0
20260510153254 22 78 1.6 1.6 0.00 0.00 0.00 87 1019.9
20260510152751 22 117 1.6 1.6 0.00 0.00 0.00 89 1020.0
20260510152248 22 63 1.6 1.6 0.00 0.00 0.00 85 1019.9
20260510151744 21 72 0.0 3.2 0.00 0.00 0.00 88 1019.8
20260510151243 21 90 0.0 1.6 0.00 0.00 0.00 89 1020.0
20260510150738 21 63 1.6 1.6 0.00 0.00 0.00 88 1020.0
20260510150234 21 127 3.2 4.8 0.00 0.00 0.00 86 1019.9
20260510145730 21 126 1.6 3.2 0.00 0.00 0.00 88 1020.0
20260510145227 21 70 0.0 1.6 0.00 0.00 0.00 88 1019.9
20260510144722 21 89 0.0 0.0 0.00 0.00 0.00 90 1019.7
20260510144220 21 116 3.2 3.2 0.00 0.00 0.00 89 1019.7
20260510143714 21 98 0.0 3.2 0.00 0.00 0.00 91 1019.6
20260510143211 20 73 0.0 3.2 0.00 0.00 0.00 93 1019.7
20260510142707 20 98 0.0 3.2 0.00 0.00 0.00 93 1019.8
20260510142204 20 88 0.0 1.6 0.00 0.00 0.00 95 1019.8
20260510141701 20 108 0.0 0.0 0.00 0.00 0.00 94 1019.7
20260510141159 20 80 0.0 0.0 0.00 0.00 0.00 94 1019.9
20260510140655 20 79 0.0 0.0 0.00 0.00 0.00 95 1019.8
20260510140155 19 93 0.0 1.6 0.00 0.00 0.00 96 1019.7
20260510135650 19 79 0.0 0.0 0.00 0.00 0.00 98 1019.4
20260510135146 19 21 1.6 1.6 0.00 0.00 0.00 98 1019.3
20260510134643 18 95 0.0 0.0 0.00 0.00 0.00 99 1019.4
20260510134141 18 96 0.0 0.0 0.00 0.00 0.00 99 1019.5
20260510133637 18 92 0.0 0.0 0.00 0.00 0.00 99 1019.4
20260510133132 18 101 0.0 0.0 0.00 0.00 0.00 99 1019.4
20260510132629 18 85 0.0 0.0 0.00 0.00 0.00 99 1019.5
20260510132126 18 96 0.0 0.0 0.00 0.00 0.00 99 1019.3
20260510131624 18 75 0.0 1.6 0.00 0.00 0.00 99 1019.4
20260510131121 18 102 0.0 1.6 0.00 0.00 0.00 99 1019.2
20260510130617 18 70 0.0 1.6 0.00 0.00 0.00 99 1018.9
20260510130115 18 93 0.0 0.0 0.00 0.00 0.00 99 1018.7
20260510125611 18 68 0.0 0.0 0.00 0.00 0.00 99 1018.9
20260510125108 17 80 0.0 0.0 0.00 0.00 0.00 99 1018.9
20260510124604 17 85 0.0 0.0 0.00 0.00 0.00 99 1018.9
20260510124101 17 74 0.0 0.0 0.00 0.00 0.00 99 1018.8
20260510123556 17 98 0.0 0.0 0.00 0.00 0.00 99 1018.7
20260510123053 17 86 0.0 0.0 0.00 0.00 0.00 99 1018.7
20260510122549 17 92 0.0 0.0 0.00 0.00 0.00 99 1018.6
20260510122045 17 86 0.0 0.0 0.00 0.00 0.00 99 1018.4
20260510121542 17 67 0.0 0.0 0.00 0.00 0.00 99 1018.5
20260510121039 17 57 1.6 1.6 0.00 0.00 0.00 99 1018.5
20260510120537 17 76 0.0 3.2 0.00 0.00 0.00 99 1018.2
20260510120032 17 356 3.2 3.2 0.00 0.00 0.00 99 1018.2
20260510115529 16 53 1.6 1.6 0.00 0.00 0.00 99 1018.2
20260510115026 16 62 0.0 0.0 0.00 0.00 0.00 99 1018.1
20260510114522 16 70 0.0 0.0 0.00 0.00 0.00 99 1017.9
20260510114018 16 64 0.0 0.0 0.00 0.00 0.00 99 1018.1
20260510113513 16 79 0.0 0.0 0.00 0.00 0.00 99 1017.9
20260510113011 16 79 0.0 0.0 0.00 0.00 0.00 99 1017.9
20260510112508 16 79 0.0 0.0 0.00 0.00 0.00 99 1017.8
20260510112004 16 81 0.0 0.0 0.00 0.00 0.00 99 1017.9
20260510111500 16 81 0.0 0.0 0.00 0.00 0.00 99 1017.6
20260510110956 16 81 0.0 0.0 0.00 0.00 0.00 99 1017.4
20260510110453 16 80 0.0 0.0 0.00 0.00 0.00 99 1017.5
20260510105949 16 80 0.0 0.0 0.00 0.00 0.00 99 1017.2
20260510105444 16 80 0.0 0.0 0.00 0.00 0.00 99 1017.2
20260510104940 16 80 0.0 0.0 0.00 0.00 0.00 99 1017.2
20260510104437 16 81 0.0 0.0 0.00 0.00 0.00 99 1016.9
20260510103933 16 80 0.0 0.0 0.00 0.00 0.00 99 1016.9
20260510103431 16 81 0.0 0.0 0.00 0.00 0.00 99 1016.9
20260510102927 16 80 0.0 0.0 0.00 0.00 0.00 99 1016.9
20260510102423 16 80 0.0 0.0 0.00 0.00 0.00 99 1016.8
20260510101920 16 80 0.0 0.0 0.00 0.00 0.00 99 1016.8
20260510101417 16 80 0.0 0.0 0.00 0.00 0.00 99 1016.8
20260510100915 16 75 0.0 0.0 0.00 0.00 0.00 99 1016.9
20260510100412 16 75 0.0 0.0 0.00 0.00 0.00 99 1016.8
20260510095908 16 75 0.0 0.0 0.00 0.00 0.00 99 1016.7
20260510095403 16 79 0.0 0.0 0.00 0.00 0.00 99 1016.6
20260510094902 16 88 0.0 0.0 0.00 0.00 0.00 99 1016.4
20260510094358 16 88 0.0 0.0 0.00 0.00 0.00 99 1016.4
20260510093854 16 88 0.0 0.0 0.00 0.00 0.00 99 1016.4
20260510093349 16 92 0.0 0.0 0.00 0.00 0.00 99 1016.5
20260510092846 16 92 0.0 0.0 0.00 0.00 0.00 99 1016.4
20260510092343 16 92 0.0 0.0 0.00 0.00 0.00 99 1016.7
20260510091838 16 92 0.0 0.0 0.00 0.00 0.00 99 1016.6
20260510091335 16 92 0.0 0.0 0.00 0.00 0.00 99 1016.7
20260510090832 16 92 0.0 0.0 0.00 0.00 0.00 99 1016.6
20260510090328 16 92 0.0 0.0 0.00 0.00 0.00 99 1016.3
20260510085824 16 88 0.0 0.0 0.00 0.00 0.00 99 1016.5
20260510085324 16 88 0.0 0.0 0.00 0.00 0.00 99 1016.5
20260510084820 16 88 0.0 0.0 0.00 0.00 0.00 99 1016.3
20260510084317 16 88 0.0 0.0 0.00 0.00 0.00 99 1016.3
20260510083814 16 88 0.0 0.0 0.00 0.00 0.00 99 1016.3
20260510083311 16 88 0.0 0.0 0.00 0.00 0.00 99 1016.2
20260510082806 16 88 0.0 0.0 0.00 0.00 0.00 99 1016.1
20260510082306 16 88 0.0 0.0 0.00 0.00 0.00 99 1016.4
20260510081802 16 88 0.0 0.0 0.00 0.00 0.00 99 1016.1
20260510081258 16 88 0.0 0.0 0.00 0.00 0.00 99 1016.1
20260510080754 16 88 0.0 0.0 0.00 0.00 0.00 99 1016.2
20260510080249 16 88 0.0 0.0 0.00 0.00 0.00 99 1016.1
20260510075747 16 88 0.0 0.0 0.00 0.00 0.00 99 1015.9
20260510075244 16 88 0.0 0.0 0.00 0.00 0.00 99 1016.0
20260510074741 16 88 0.0 0.0 0.00 0.00 0.00 99 1015.8
20260510074237 16 88 0.0 0.0 0.00 0.00 0.00 99 1016.0
20260510073734 16 88 0.0 0.0 0.00 0.00 0.00 99 1015.7
20260510073230 16 87 0.0 0.0 0.00 0.00 0.00 99 1015.8
20260510072725 16 87 0.0 0.0 0.00 0.00 0.00 99 1015.8
20260510072222 16 102 0.0 0.0 0.00 0.00 0.00 99 1015.7
20260510071719 16 103 0.0 0.0 0.00 0.00 0.00 99 1015.7
20260510071216 17 103 0.0 0.0 0.00 0.00 0.00 99 1015.8
20260510070714 17 103 0.0 0.0 0.00 0.00 0.00 99 1015.6
20260510070211 17 103 0.0 0.0 0.00 0.00 0.00 99 1015.5
20260510065706 17 103 0.0 0.0 0.00 0.00 0.00 99 1015.8
20260510065202 17 103 0.0 0.0 0.00 0.00 0.00 99 1015.6
20260510064659 17 103 0.0 0.0 0.00 0.00 0.00 99 1015.4
20260510064156 17 103 0.0 0.0 0.00 0.00 0.00 99 1015.4
20260510063653 17 103 0.0 0.0 0.00 0.00 0.00 99 1015.5
20260510063149 17 103 0.0 0.0 0.00 0.00 0.00 99 1015.2
20260510062646 17 103 0.0 0.0 0.00 0.00 0.00 99 1015.1
20260510062142 17 103 0.0 0.0 0.00 0.00 0.00 99 1015.0
20260510061637 17 104 0.0 0.0 0.00 0.00 0.00 99 1015.2
20260510061135 17 79 0.0 0.0 0.00 0.00 0.00 99 1015.1
20260510060631 17 80 0.0 0.0 0.00 0.00 0.00 99 1015.3
20260510060127 17 80 0.0 0.0 0.00 0.00 0.00 99 1015.4
20260510055624 17 78 0.0 0.0 0.00 0.00 0.00 99 1015.4
20260510055122 17 78 0.0 0.0 0.00 0.00 0.00 99 1015.7
20260510054617 17 78 0.0 0.0 0.00 0.00 0.00 99 1015.5
20260510054112 17 78 0.0 0.0 0.00 0.00 0.00 99 1015.6
20260510053612 17 78 0.0 0.0 0.00 0.00 0.00 99 1015.9
20260510053109 17 78 0.0 0.0 0.00 0.00 0.00 99 1015.8
20260510052605 17 96 0.0 0.0 0.00 0.00 0.00 99 1015.8
20260510052102 17 96 0.0 0.0 0.00 0.00 0.00 99 1016.0
20260510051557 17 96 0.0 0.0 0.00 0.00 0.00 99 1016.0
20260510051054 17 96 0.0 0.0 0.00 0.00 0.00 99 1015.9
20260510050551 17 96 0.0 0.0 0.00 0.00 0.00 99 1015.8
20260510050048 17 96 0.0 0.0 0.00 0.00 0.00 99 1015.9
20260510045540 17 96 0.0 0.0 0.00 2.51 2.51 99 1015.9
20260510045036 17 96 0.0 0.0 0.00 2.51 2.51 99 1016.1
20260510044533 17 97 0.0 0.0 0.00 2.51 2.51 99 1016.3
20260510044031 17 97 0.0 0.0 0.00 2.51 2.51 99 1016.2
20260510043526 17 97 0.0 0.0 0.00 2.51 2.51 99 1016.4
20260510043021 17 93 0.0 0.0 0.00 2.51 2.51 99 1016.6
20260510042516 17 93 0.0 0.0 0.00 2.51 2.51 99 1016.5
20260510042016 17 93 0.0 0.0 0.00 2.51 2.51 99 1016.2
20260510041514 17 94 0.0 0.0 0.00 2.51 2.51 99 1016.6
20260510041011 17 94 0.0 0.0 0.00 2.51 2.51 99 1016.4
20260510040508 17 88 0.0 0.0 0.00 2.51 2.51 99 1016.2
20260510040003 17 71 0.0 0.0 0.00 2.51 2.51 99 1015.9
20260510035500 17 90 0.0 0.0 0.00 2.51 2.51 99 1016.3
20260510034959 17 90 0.0 0.0 0.00 2.51 2.51 99 1016.6
20260510034459 17 89 0.0 0.0 0.00 2.51 2.51 99 1016.4
20260510033954 17 90 0.0 0.0 0.00 2.51 2.51 99 1016.4
20260510033450 17 77 0.0 0.0 0.00 2.51 2.51 99 1016.4
20260510032948 17 77 0.0 0.0 0.00 2.51 2.51 99 1016.2
20260510032445 17 76 0.0 0.0 0.00 2.51 2.51 99 1016.0
20260510031944 17 77 0.0 0.0 0.00 2.51 2.51 99 1016.0
20260510031440 17 77 0.0 0.0 0.00 2.51 2.51 99 1016.1
20260510030936 17 76 0.0 1.6 0.00 2.51 2.51 99 1016.2
20260510030432 18 94 0.0 0.0 0.00 2.51 2.51 99 1016.4
20260510025929 18 94 0.0 0.0 0.00 2.51 2.51 99 1016.2
20260510025427 18 94 0.0 0.0 0.00 2.51 2.51 99 1016.3
20260510024924 18 95 0.0 0.0 0.00 2.51 2.51 99 1016.1
20260510024420 18 95 0.0 0.0 0.00 2.51 2.51 99 1016.4
20260510023916 18 95 0.0 0.0 0.00 2.51 2.51 99 1016.2
20260510023413 18 95 0.0 1.6 0.00 2.51 2.51 99 1016.0
20260510022910 18 78 0.0 0.0 0.00 2.51 2.51 99 1016.2
20260510022409 18 78 0.0 0.0 0.00 2.51 2.51 99 1016.1
20260510021908 18 70 0.0 0.0 0.00 2.51 2.51 99 1016.1
20260510021406 18 83 0.0 0.0 0.00 2.51 2.51 99 1015.8
20260510020903 18 83 0.0 0.0 0.00 2.51 2.51 99 1016.0
20260510020357 18 86 0.0 0.0 0.00 2.51 2.51 99 1015.8
20260510015853 18 83 0.0 0.0 0.00 2.51 2.51 99 1016.1
20260510015349 18 83 0.0 0.0 0.00 2.51 2.51 99 1016.0
20260510014845 18 55 1.6 3.2 0.00 2.51 2.51 99 1015.9
20260510014343 18 95 0.0 1.6 0.00 2.51 2.51 99 1015.6
20260510013839 18 113 1.6 1.6 0.00 2.51 2.51 99 1015.8
20260510013334 18 82 0.0 0.0 0.00 2.51 2.51 98 1016.0
20260510012829 18 64 0.0 0.0 0.00 2.51 2.51 98 1015.8
20260510012329 18 99 0.0 0.0 0.00 2.51 2.51 98 1015.7
20260510011824 18 101 0.0 0.0 0.00 2.51 2.51 98 1015.7
20260510011320 18 83 0.0 0.0 0.00 2.51 2.51 98 1015.5
20260510010817 18 75 0.0 1.6 0.00 2.51 2.51 99 1015.7
20260510010314 19 80 0.0 0.0 0.00 2.51 2.51 99 1015.6
20260510005810 19 90 0.0 0.0 0.00 2.51 2.51 99 1015.4
20260510005307 18 99 0.0 1.6 0.00 2.51 2.51 99 1015.5
20260510004805 19 98 0.0 0.0 0.00 2.51 2.51 99 1015.5
20260510004302 19 110 1.6 1.6 0.00 2.51 2.51 98 1015.5
20260510003759 19 81 0.0 0.0 0.00 2.51 2.51 98 1015.7
20260510003256 19 80 0.0 0.0 0.00 2.51 2.51 98 1015.3
20260510002754 19 97 0.0 0.0 0.00 2.51 2.51 98 1015.3
20260510002252 19 90 0.0 0.0 0.00 2.51 2.51 98 1015.1
20260510001749 19 90 0.0 0.0 0.00 2.51 2.51 98 1014.7
20260510001247 19 101 0.0 0.0 0.00 2.51 2.51 98 1014.6
20260510000742 19 100 0.0 0.0 0.00 2.51 2.51 97 1014.7
20260510000241 19 103 0.0 1.6 0.00 2.51 2.51 97 1014.7
20260509235737 20 99 0.0 0.0 0.00 2.51 2.51 97 1014.7
20260509235233 20 100 0.0 0.0 0.00 2.51 2.51 97 1014.6
20260509234729 20 110 0.0 1.6 0.00 2.51 2.51 96 1014.6
20260509234227 20 101 0.0 0.0 0.00 2.51 2.51 96 1014.8
20260509233725 20 90 0.0 0.0 0.00 2.51 2.51 96 1014.8
20260509233222 20 98 0.0 0.0 0.00 2.51 2.51 96 1014.7
20260509232718 20 83 0.0 1.6 0.00 2.51 2.51 96 1014.5
20260509232215 20 96 0.0 0.0 0.00 2.51 2.51 96 1014.7
20260509231711 20 96 0.0 0.0 0.00 2.51 2.51 96 1014.6
20260509231209 20 99 0.0 0.0 0.00 2.51 2.51 96 1014.6
20260509230707 20 103 0.0 0.0 0.00 2.51 2.51 96 1014.5
20260509230203 20 101 0.0 1.6 0.00 2.51 2.51 96 1014.4
20260509225659 20 105 0.0 0.0 0.00 2.51 2.51 96 1014.4
20260509225154 20 55 1.6 1.6 0.00 2.51 2.51 97 1014.4
20260509224645 20 108 0.0 1.6 0.00 2.51 2.51 97 1014.5
20260509224142 20 107 0.0 0.0 0.00 2.51 2.51 97 1014.5
20260509223638 20 106 0.0 0.0 0.00 2.51 2.51 97 1014.4
20260509223136 20 82 0.0 0.0 0.00 2.51 2.51 97 1014.2
20260509222633 20 96 0.0 0.0 0.00 2.51 2.51 97 1014.3
20260509222127 20 101 0.0 0.0 0.00 2.51 2.51 97 1014.1
20260509221624 20 90 0.0 0.0 0.00 2.51 2.51 97 1014.0
20260509221115 20 126 1.6 1.6 0.00 2.51 2.51 96 1013.7
20260509220610 20 107 1.6 1.6 0.00 2.51 2.51 96 1014.0
20260509220107 20 100 0.0 1.6 0.00 2.51 2.51 96 1014.1
20260509215603 20 91 0.0 1.6 0.00 2.51 2.51 95 1013.8
20260509215100 20 98 0.0 0.0 0.00 2.51 2.51 96 1014.0
20260509214557 20 107 0.0 1.6 0.00 2.51 2.51 95 1013.6
20260509214054 20 101 1.6 1.6 0.00 2.51 2.51 95 1013.6
20260509213549 20 95 0.0 0.0 0.00 2.51 2.51 95 1013.7
20260509213046 20 99 0.0 1.6 0.00 2.51 2.51 95 1013.5
20260509212544 20 98 0.0 0.0 0.00 2.51 2.51 95 1014.1
20260509212041 20 96 0.0 1.6 0.00 2.51 2.51 94 1013.7
20260509211536 20 88 0.0 0.0 0.00 2.51 2.51 94 1013.7
20260509211033 20 102 0.0 1.6 0.00 2.51 2.51 95 1013.8
20260509210530 20 78 1.6 1.6 0.00 2.51 2.51 95 1014.3
20260509210026 20 101 0.0 1.6 0.00 2.51 2.51 96 1014.0
20260509205526 20 111 0.0 0.0 0.00 2.51 2.51 96 1014.1
20260509205021 20 97 0.0 0.0 0.00 2.51 2.51 95 1014.1
20260509204518 20 68 0.0 1.6 0.00 2.51 2.51 95 1014.0
20260509204014 20 100 0.0 0.0 0.00 2.51 2.51 95 1014.2
20260509203510 21 104 0.0 0.0 0.00 2.51 2.51 94 1014.0
20260509203009 20 94 0.0 0.0 0.00 2.51 2.51 95 1013.8
20260509202509 21 108 0.0 1.6 0.00 2.51 2.51 95 1013.7
20260509202004 20 99 0.0 0.0 0.00 2.51 2.51 94 1014.0
20260509201459 20 94 0.0 0.0 0.00 2.51 2.51 93 1014.1
20260509200957 21 113 1.6 1.6 0.00 2.51 2.51 94 1013.8
20260509200452 21 99 0.0 0.0 0.00 2.51 2.51 93 1014.0
20260509195948 21 97 0.0 0.0 0.00 2.51 2.51 94 1014.2
20260509195444 21 97 0.0 0.0 0.00 2.51 2.51 92 1014.2
20260509194944 21 102 0.0 0.0 0.00 2.51 2.51 92 1014.0
20260509194440 21 92 0.0 0.0 0.00 2.51 2.51 92 1014.2
20260509193937 21 98 0.0 0.0 0.00 2.51 2.51 93 1014.2
20260509193436 21 72 0.0 1.6 0.00 2.51 2.51 92 1014.5
20260509192933 21 94 0.0 0.0 0.00 2.51 2.51 91 1014.5
20260509192429 21 93 0.0 0.0 0.00 2.51 2.51 93 1014.3
20260509191924 21 101 0.0 1.6 0.00 2.51 2.51 93 1014.2
20260509191420 21 96 0.0 0.0 0.00 2.51 2.51 93 1014.0
20260509190916 20 88 0.0 0.0 0.00 2.51 2.51 93 1014.1
20260509190414 20 129 1.6 1.6 0.00 2.51 2.51 91 1014.1
20260509185911 21 107 0.0 0.0 0.00 2.51 2.51 92 1014.2
20260509185408 20 50 1.6 1.6 0.00 2.51 2.51 93 1014.2
20260509184905 20 108 0.0 0.0 0.00 2.51 2.51 95 1014.2
20260509184401 20 110 0.0 1.6 0.00 2.51 2.51 94 1014.1
20260509183859 20 105 0.0 1.6 0.00 2.51 2.51 94 1014.0
20260509183353 21 80 0.0 1.6 0.00 2.51 2.51 91 1014.2
20260509182849 20 82 0.0 0.0 0.00 2.51 2.51 93 1014.2
20260509182347 20 102 0.0 1.6 0.00 2.51 2.51 95 1014.1
20260509181844 20 98 0.0 1.6 0.00 2.51 2.51 93 1014.1
20260509181341 20 88 0.0 1.6 0.00 2.51 2.51 95 1014.1
20260509180839 20 97 0.0 0.0 0.00 2.51 2.51 96 1014.0
20260509180334 20 106 0.0 1.6 0.00 2.51 2.51 96 1013.8
20260509175832 20 92 0.0 1.6 0.00 2.51 2.51 97 1014.0
20260509175328 20 99 0.0 0.0 0.00 2.51 2.51 97 1014.0
20260509174823 19 101 0.0 0.0 0.00 2.51 2.51 97 1014.0
20260509174319 19 84 0.0 0.0 0.00 2.51 2.51 99 1014.1
20260509173816 19 99 0.0 1.6 0.00 2.51 2.51 99 1014.1
20260509173311 19 102 0.0 0.0 0.00 2.51 2.51 99 1014.3
20260509172807 19 97 0.0 0.0 0.00 2.51 2.51 99 1014.4
20260509172306 18 94 0.0 0.0 0.00 2.51 2.51 99 1014.8
20260509171800 19 104 0.0 0.0 0.00 2.51 2.51 99 1014.9
20260509171256 18 102 0.0 0.0 0.00 2.51 2.51 99 1015.2
20260509170753 18 96 0.0 0.0 0.00 2.51 2.51 99 1015.2
20260509170249 19 77 0.0 0.0 0.00 2.51 2.51 99 1015.1
20260509165748 19 90 0.0 0.0 0.00 2.51 2.51 99 1015.3
20260509165243 18 109 0.0 1.6 0.00 2.51 2.51 99 1015.5
20260509164739 19 95 0.0 0.0 0.00 2.51 2.51 99 1015.6